Location: Muenchen
(48.1800°N, 11.5800°E)
Time: 14:30:53
(UTC+01:00)

ISS - All Passes

Search period start: 25 March 2017 00:00
Search period end: 04 April 2017 01:00
Orbit: 399 x 409 km, 51.6° (Epoch: 25 March)

Date Brightness Start Highest point End Pass type
(mag) Time Alt. Az. Time Alt. Az. Time Alt. Az.
25 Mar - 01:04:31 10° WNW 01:07:43 46° N 01:10:55 10° E night (unlit)
25 Mar - 02:41:02 10° WNW 02:44:19 71° SSW 02:47:37 10° ESE night (unlit)
25 Mar - 04:18:29 10° WSW 04:20:20 14° SW 04:22:11 10° S visible
25 Mar - 20:59:27 10° SSW 21:02:13 26° SE 21:05:00 10° E night (unlit)
25 Mar - 22:35:12 10° WSW 22:38:28 73° NNW 22:41:46 10° ENE night (unlit)
26 Mar - 00:12:03 10° WNW 00:15:13 43° N 00:18:24 10° ENE night (unlit)
26 Mar - 01:48:38 10° WNW 01:51:57 79° NNE 01:55:15 10° ESE night (unlit)
26 Mar - 04:25:28 10° W 04:28:10 23° SW 04:30:52 10° SSE night (unlit)
26 Mar - 21:07:58 10° S 21:10:02 16° SE 21:12:05 10° E visible
26 Mar - 22:42:48 10° WSW 22:46:03 79° SSE 22:49:21 10° ENE night (unlit)
27 Mar - 00:19:32 10° W 00:22:43 45° N 00:25:54 10° ENE night (unlit)
27 Mar - 01:56:15 10° WNW 01:59:31 58° NNE 02:02:46 10° E night (unlit)
27 Mar - 03:32:49 10° WNW 03:35:55 38° SSW 03:39:00 10° SE night (unlit)
27 Mar - 21:50:32 10° SW 21:53:43 50° SSE 21:56:54 10° ENE visible
27 Mar - 23:27:00 10° W 23:30:12 51° NNW 23:33:26 10° ENE night (unlit)
28 Mar - 01:03:49 10° WNW 01:07:01 48° N 01:10:14 10° E night (unlit)
28 Mar - 02:40:19 10° WNW 02:43:35 61° SSW 02:46:51 10° SE night (unlit)
28 Mar - 04:18:13 10° WSW 04:19:31 12° SW 04:20:48 10° SSW night (unlit)
28 Mar - 20:58:29 10° SSW 21:01:24 30° SE 21:04:20 10° E visible
28 Mar - 22:34:28 10° W 22:37:43 65° NNW 22:40:59 10° ENE visible
29 Mar - 00:11:20 10° WNW 00:14:30 43° N 00:17:40 10° ENE night (unlit)
29 Mar - 01:47:53 10° WNW 01:51:11 88° NNE 01:54:29 10° ESE night (unlit)
29 Mar - 03:24:51 10° W 03:27:19 20° SW 03:29:48 10° S night (unlit)
29 Mar - 20:06:47 10° S 20:09:09 19° SE 20:11:32 10° E visible
29 Mar - 21:41:59 10° WSW 21:45:16 89° SSE 21:48:33 10° ENE visible
29 Mar - 23:18:47 10° WNW 23:21:57 43° N 23:25:07 10° ENE visible
30 Mar - 00:55:26 10° WNW 00:58:43 64° NNE 01:02:00 10° E night (unlit)
30 Mar - 02:32:05 10° W 02:35:04 32° SW 02:38:02 10° SSE night (unlit)
30 Mar - 19:15:59 10° SSE 19:16:57 11° SE 19:17:56 10° ESE daylight
30 Mar - 20:49:38 10° SW 20:52:50 58° SSE 20:56:04 10° ENE visible
30 Mar - 22:26:12 10° W 22:29:23 48° N 22:32:36 10° ENE visible
31 Mar - 00:02:59 10° WNW 00:06:12 50° N 00:09:25 10° E night (unlit)
31 Mar - 01:39:30 10° WNW 01:42:43 52° SSW 01:45:56 10° SE night (unlit)
31 Mar - 19:57:28 10° SW 20:00:29 36° SE 20:03:31 10° ENE daylight
31 Mar - 21:33:37 10° W 21:36:51 59° NNW 21:40:07 10° ENE visible
31 Mar - 23:10:29 10° WNW 23:13:39 44° N 23:16:50 10° E visible
01 Apr - 00:47:00 10° WNW 00:50:18 82° SSW 00:53:35 10° ESE night (unlit)
01 Apr - 02:24:10 10° W 02:26:22 17° SW 02:28:33 10° S night (unlit)
01 Apr - 19:05:35 10° SSW 19:08:10 22° SE 19:10:45 10° E daylight
01 Apr - 20:41:05 10° WSW 20:44:21 81° NNW 20:47:38 10° ENE visible
01 Apr - 22:17:54 10° WNW 22:21:04 43° N 22:24:13 10° ENE visible
01 Apr - 23:54:32 10° WNW 23:57:49 70° NNE 00:01:05 10° ESE visible
02 Apr - 01:31:14 10° W 01:34:05 27° SW 01:36:55 10° SSE night (unlit)
02 Apr - 18:14:17 10° SSE 18:15:55 13° SE 18:17:33 10° ESE daylight
02 Apr - 19:48:38 10° SW 19:51:52 68° SSE 19:55:08 10° ENE daylight
02 Apr - 21:25:18 10° W 21:28:28 46° N 21:31:39 10° ENE visible
02 Apr - 23:02:02 10° WNW 23:05:16 54° NNE 23:08:30 10° E visible
03 Apr - 00:38:34 10° WNW 00:41:44 44° SSW 00:44:52 10° SE night (unlit)
03 Apr - 18:56:22 10° SW 18:59:27 42° SSE 19:02:34 10° ENE daylight
03 Apr - 20:32:41 10° W 20:35:53 55° NNW 20:39:07 10° ENE visible
03 Apr - 22:09:31 10° WNW 22:12:41 46° N 22:15:52 10° E visible
03 Apr - 23:46:01 10° WNW 23:49:17 71° SSW 23:52:33 10° ESE visible
